{"data":{"norad_id":56070,"epoch":"2026-05-24T19:57:45.416160Z","epoch_age_seconds":86609,"freshness":"FRESH","line1":"1 56070U 23043AA  26144.83177565 -.00000087  00000+0 -26568-3 0  9995","line2":"2 56070  87.8987 263.8662 0001874 102.5057 257.6283 13.15547336153369","mean_motion":13.15547336,"eccentricity":0.0001874,"inclination_deg":87.8987,"raan_deg":263.8662,"arg_perigee_deg":102.5057,"mean_anomaly_deg":257.6283,"bstar":-0.00026568,"rev_number":15336,"period_min":109.46014336348,"perigee_km":1200.3549550802,"apogee_km":1203.1959062592,"semimajor_km":7579.9124306697,"source":"CELESTRAK","updated_at":"2026-05-25T13:38:22.705172Z"}}